K7RCT-13 Weather Reports


time (UTC)temp
C
wind
direction
speed
KPH
gust
KPH
rain 1hr
cm
rain 24hr
cm
rain mn
cm
humidity
%
barometer
mb
20210518200704 10 224 0.0 0.0 0.10 0.36 0.10 83 1019.1
20210518200205 10 251 0.0 0.0 0.10 0.36 0.10 82 1019.0
20210518195704 9 344 0.0 0.0 0.10 0.36 0.10 81 1018.9
20210518195204 9 338 0.0 0.0 0.10 0.36 0.10 77 1018.9
20210518194704 10 327 0.0 0.0 0.08 0.33 0.08 77 1018.9
20210518194204 10 355 0.0 0.0 0.08 0.33 0.08 79 1018.8
20210518193707 10 279 0.0 0.0 0.05 0.30 0.05 77 1018.8
20210518193204 10 0 0.0 0.0 0.05 0.30 0.05 74 1018.8
20210518192704 11 244 0.0 0.0 0.05 0.30 0.05 76 1019.0
20210518192204 11 306 0.0 0.0 0.00 0.25 0.00 70 1018.9
20210518191705 11 212 0.0 0.0 0.00 0.25 0.00 65 1018.8
20210518191205 11 128 0.0 0.0 0.00 0.25 0.00 66 1018.8
20210518190704 12 148 0.0 0.0 0.00 0.25 0.00 62 1018.8
20210518190205 12 252 0.0 0.0 0.00 0.25 0.00 64 1018.8
20210518185704 12 307 0.0 0.0 0.00 0.25 0.00 63 1018.9
20210518185204 12 226 0.0 0.0 0.00 0.25 0.00 61 1018.9
20210518184705 12 141 0.0 0.0 0.00 0.25 0.00 63 1019.0
20210518184205 12 264 0.0 0.0 0.00 0.25 0.00 67 1019.0
20210518183704 12 302 0.0 0.0 0.00 0.25 0.00 65 1019.1
20210518183205 12 235 0.0 0.0 0.00 0.25 0.00 66 1018.9
20210518182705 11 85 0.0 0.0 0.00 0.25 0.00 71 1019.0
20210518182205 11 288 0.0 0.0 0.00 0.25 0.00 73 1019.0
20210518181704 10 73 0.0 0.0 0.00 0.25 0.00 74 1019.0
20210518181204 11 52 0.0 0.0 0.00 0.25 0.00 68 1019.0
20210518180704 12 353 0.0 0.0 0.00 0.25 0.00 64 1018.9
20210518180205 12 305 0.0 0.0 0.00 0.25 0.00 62 1019.0
20210518175704 13 233 0.0 0.0 0.00 0.25 0.00 64 1018.9
20210518175204 13 161 0.0 0.0 0.00 0.25 0.00 60 1019.0
20210518174704 13 337 0.0 0.0 0.00 0.25 0.00 62 1019.0
20210518174205 13 223 0.0 0.0 0.00 0.25 0.00 64 1019.0
20210518173704 12 176 0.0 0.0 0.00 0.25 0.00 63 1019.0
20210518173205 12 223 0.0 0.0 0.00 0.25 0.00 66 1019.0
20210518172707 11 230 0.0 0.0 0.00 0.25 0.00 64 1018.9
20210518172205 11 244 0.0 0.0 0.00 0.25 0.00 68 1018.8
20210518171705 11 173 0.0 0.0 0.00 0.25 0.00 68 1019.1
20210518171205 11 240 0.0 0.0 0.00 0.25 0.00 67 1018.9
20210518170704 11 226 0.0 0.0 0.00 0.25 0.00 71 1019.0
20210518170208 11 269 0.0 0.0 0.00 0.25 0.00 69 1019.0
20210518165704 11 295 0.0 0.0 0.00 0.25 0.00 69 1019.0
20210518165204 11 244 0.0 0.0 0.00 0.25 0.00 69 1019.0
20210518164705 10 269 0.0 0.0 0.00 0.25 0.00 70 1018.9
20210518164204 10 233 0.0 0.0 0.00 0.25 0.00 71 1018.9
20210518163707 10 195 0.0 0.0 0.00 0.25 0.00 71 1018.9
20210518163207 10 231 0.0 0.0 0.00 0.25 0.00 72 1018.8
20210518162704 10 172 0.0 0.0 0.00 0.25 0.00 73 1018.8
20210518162205 10 137 0.0 0.0 0.00 0.25 0.00 73 1018.8
20210518161704 9 169 0.0 0.0 0.00 0.25 0.00 74 1018.8
20210518161205 9 192 0.0 0.0 0.00 0.25 0.00 73 1018.8
20210518160705 8 182 0.0 0.0 0.00 0.25 0.00 74 1018.8
20210518160205 9 298 0.0 0.0 0.00 0.25 0.00 74 1018.8
20210518155704 9 144 0.0 0.0 0.00 0.25 0.00 75 1018.8
20210518155205 8 189 0.0 0.0 0.00 0.25 0.00 74 1018.7
20210518154704 8 210 0.0 0.0 0.00 0.25 0.00 75 1018.7
20210518154205 8 188 0.0 0.0 0.00 0.25 0.00 75 1018.7
20210518153704 8 217 0.0 0.0 0.00 0.25 0.00 76 1018.7
20210518153204 8 173 0.0 0.0 0.00 0.25 0.00 75 1018.5
20210518152704 8 220 0.0 0.0 0.00 0.25 0.00 76 1018.4
20210518152205 8 197 0.0 0.0 0.00 0.25 0.00 76 1018.4
20210518151704 8 186 0.0 0.0 0.00 0.25 0.00 75 1018.3
20210518151204 8 212 0.0 0.0 0.00 0.25 0.00 76 1018.3
20210518150705 8 212 0.0 0.0 0.00 0.25 0.00 76 1018.2
20210518150204 8 183 0.0 0.0 0.00 0.25 0.00 77 1018.3
20210518145705 8 213 0.0 0.0 0.00 0.25 0.00 77 1018.2
20210518145204 8 207 0.0 0.0 0.00 0.25 0.00 78 1018.0
20210518144704 8 190 0.0 0.0 0.00 0.25 0.00 78 1018.0
20210518144205 8 176 0.0 1.6 0.00 0.25 0.00 77 1017.9
20210518143704 8 196 0.0 1.6 0.00 0.25 0.00 77 1017.9
20210518143205 8 149 0.0 1.6 0.00 0.25 0.00 78 1017.8
20210518142704 8 200 0.0 1.6 0.00 0.25 0.00 78 1017.8
20210518142205 8 200 0.0 1.6 0.00 0.25 0.00 78 1017.7
20210518141704 8 217 0.0 1.6 0.00 0.25 0.00 77 1017.7
20210518141205 8 176 0.0 0.0 0.00 0.25 0.00 77 1017.7
20210518140705 8 189 0.0 0.0 0.00 0.25 0.00 77 1017.6
20210518140204 8 224 0.0 0.0 0.00 0.25 0.00 78 1017.5
20210518135704 8 182 0.0 0.0 0.00 0.25 0.00 78 1017.3
20210518135205 8 186 0.0 0.0 0.00 0.25 0.00 78 1017.2
20210518134704 8 203 0.0 0.0 0.00 0.25 0.00 78 1017.1
20210518134205 8 182 0.0 0.0 0.00 0.25 0.00 78 1017.1
20210518133704 7 209 0.0 0.0 0.00 0.25 0.00 79 1017.2
20210518133205 7 219 0.0 0.0 0.00 0.25 0.00 79 1017.1
20210518132704 7 152 0.0 0.0 0.00 0.25 0.00 79 1017.0
20210518132205 7 176 0.0 0.0 0.00 0.25 0.00 79 1016.9
20210518131705 7 176 0.0 0.0 0.00 0.25 0.00 79 1016.9
20210518131205 7 120 0.0 0.0 0.00 0.25 0.00 79 1016.7
20210518130705 7 199 0.0 0.0 0.00 0.25 0.00 80 1016.6
20210518130205 7 180 0.0 0.0 0.00 0.25 0.00 80 1016.6
20210518125704 7 131 0.0 0.0 0.00 0.25 0.00 80 1016.6
20210518125205 7 159 0.0 0.0 0.00 0.25 0.00 80 1016.6
20210518124705 7 192 0.0 0.0 0.00 0.25 0.00 80 1016.4
20210518124204 7 135 0.0 0.0 0.00 0.25 0.00 80 1016.3
20210518123704 7 310 0.0 0.0 0.00 0.25 0.00 80 1016.1
20210518123205 7 189 0.0 0.0 0.00 0.25 0.00 80 1016.0
20210518122704 7 175 0.0 0.0 0.00 0.25 0.00 80 1016.0
20210518122204 7 165 0.0 0.0 0.00 0.25 0.00 80 1015.8
20210518121707 7 142 0.0 0.0 0.00 0.25 0.00 80 1015.8
20210518121204 7 193 0.0 0.0 0.00 0.25 0.00 80 1015.7
20210518120705 7 176 0.0 0.0 0.00 0.25 0.00 79 1015.8
20210518120204 7 171 0.0 0.0 0.00 0.25 0.00 80 1015.7
20210518115704 7 197 0.0 0.0 0.00 0.25 0.00 79 1015.7
20210518115204 7 207 0.0 0.0 0.00 0.25 0.00 79 1015.6
20210518114707 7 197 0.0 0.0 0.00 0.25 0.00 80 1015.5
20210518114204 7 111 0.0 11.3 0.00 0.25 0.00 80 1015.4
20210518113704 7 113 0.0 11.3 0.00 0.25 0.00 80 1015.4
20210518113205 7 159 0.0 11.3 0.00 0.25 0.00 80 1015.4
20210518112704 7 231 1.6 11.3 0.00 0.25 0.00 80 1015.4
20210518112204 7 217 0.0 11.3 0.00 0.25 0.00 80 1015.2
20210518111704 7 173 1.6 0.0 0.00 0.25 0.00 79 1015.1
20210518111204 7 140 0.0 0.0 0.00 0.25 0.00 79 1015.0
20210518110705 8 200 0.0 0.0 0.00 0.25 0.00 79 1015.0
20210518110205 8 227 0.0 0.0 0.00 0.25 0.00 79 1015.0
20210518105704 8 164 0.0 20.9 0.00 0.25 0.00 78 1015.0
20210518105204 8 113 0.0 20.9 0.00 0.25 0.00 78 1014.8
20210518104704 8 176 0.0 20.9 0.00 0.25 0.00 78 1014.8
20210518104204 8 162 0.0 16.1 0.00 0.25 0.00 78 1014.6
20210518103704 8 219 0.0 3.2 0.00 0.25 0.00 78 1014.5
20210518103204 8 183 0.0 3.2 0.00 0.25 0.00 78 1014.6
20210518102704 8 216 0.0 1.6 0.00 0.25 0.00 78 1014.5
20210518102205 8 145 0.0 6.4 0.00 0.25 0.00 78 1014.4
20210518101704 8 244 0.0 6.4 0.00 0.25 0.00 78 1014.5
20210518101204 8 165 0.0 6.4 0.00 0.25 0.00 78 1014.6
20210518100704 8 204 0.0 0.0 0.00 0.25 0.00 78 1014.6
20210518100204 8 159 0.0 0.0 0.00 0.25 0.00 79 1014.6
20210518095704 8 173 0.0 16.1 0.00 0.25 0.00 79 1014.6
20210518095204 8 220 0.0 16.1 0.00 0.25 0.00 79 1014.5
20210518094704 8 204 0.0 14.5 0.00 0.25 0.00 79 1014.4
20210518094204 8 202 0.0 14.5 0.00 0.25 0.00 79 1014.4
20210518093704 8 204 0.0 14.5 0.00 0.25 0.00 79 1014.4
20210518093204 8 133 0.0 9.7 0.00 0.25 0.00 79 1014.4
20210518092704 8 223 0.0 9.7 0.00 0.25 0.00 79 1014.4
20210518092204 8 251 0.0 20.9 0.00 0.25 0.00 79 1014.2
20210518091705 9 213 0.0 20.9 0.00 0.25 0.00 79 1014.0
20210518091208 9 176 1.6 20.9 0.00 0.25 0.00 79 1014.0
20210518090705 8 180 3.2 35.4 0.00 0.25 0.00 79 1014.0
20210518090207 8 165 0.0 35.4 0.00 0.25 0.00 79 1013.8
20210518085707 9 172 4.8 35.4 0.00 0.25 0.00 78 1013.7
20210518085204 8 185 3.2 22.5 0.00 0.25 0.00 78 1013.6
20210518084704 9 189 1.6 22.5 0.00 0.25 0.00 78 1013.5
20210518084205 9 161 3.2 22.5 0.00 0.25 0.00 79 1013.4
20210518083704 9 220 0.0 22.5 0.00 0.25 0.00 79 1013.4
20210518083208 9 149 1.6 22.5 0.00 0.25 0.00 79 1013.1
20210518082704 9 171 0.0 24.1 0.00 0.25 0.00 79 1013.0
20210518082204 9 140 6.4 24.1 0.00 0.25 0.00 79 1012.9
20210518081705 9 204 0.0 24.1 0.00 0.25 0.00 79 1012.9
20210518081204 9 226 1.6 25.7 0.00 0.25 0.00 80 1012.9
20210518080704 9 173 0.0 25.7 0.00 0.25 0.00 80 1012.8
20210518080204 9 175 3.2 19.3 0.00 0.25 0.00 80 1012.8
20210518075704 9 158 0.0 25.7 0.00 0.25 0.00 81 1012.7
20210518075204 9 137 1.6 25.7 0.00 0.25 0.00 81 1012.4
20210518074705 9 213 0.0 24.1 0.00 0.25 0.00 82 1012.5
20210518074204 9 128 3.2 22.5 0.00 0.25 0.00 82 1012.2
20210518073705 9 206 1.6 19.3 0.00 0.25 0.00 82 1012.1
20210518073205 9 221 1.6 17.7 0.00 0.25 0.00 82 1012.0
20210518072705 9 185 1.6 17.7 0.00 0.25 0.00 82 1011.9
20210518072205 9 251 0.0 20.9 0.00 0.25 0.00 83 1011.7
20210518071705 9 295 0.0 20.9 0.00 0.25 0.00 84 1011.7
20210518071204 9 124 0.0 24.1 0.00 0.25 0.00 84 1011.8
20210518070707 9 140 3.2 24.1 0.03 0.25 0.00 84 1011.5
20210518070208 9 258 3.2 4.8 0.03 0.25 0.25 85 1011.5
20210518065704 9 145 0.0 16.1 0.03 0.25 0.25 85 1011.5
20210518065205 9 202 0.0 19.3 0.05 0.25 0.25 86 1011.4
20210518064704 9 189 0.0 22.5 0.05 0.25 0.25 86 1011.3
20210518064204 9 226 3.2 22.5 0.05 0.25 0.25 87 1011.4
20210518063704 9 168 6.4 24.1 0.08 0.25 0.25 88 1011.3
20210518063204 9 286 4.8 24.1 0.08 0.25 0.25 88 1011.2
20210518062705 10 158 3.2 16.1 0.08 0.25 0.25 89 1011.3
20210518062204 10 172 0.0 0.0 0.08 0.25 0.25 89 1011.3
20210518061704 10 155 0.0 0.0 0.08 0.25 0.25 90 1011.3
20210518061204 10 176 0.0 1.6 0.08 0.25 0.25 90 1011.2
20210518060704 10 202 0.0 1.6 0.05 0.23 0.23 90 1011.2
20210518060205 10 157 0.0 1.6 0.05 0.23 0.23 90 1011.1
20210518055704 10 114 0.0 0.0 0.05 0.23 0.23 90 1011.2
20210518055204 10 138 0.0 0.0 0.05 0.20 0.20 90 1011.0
20210518054704 10 137 0.0 0.0 0.05 0.20 0.20 89 1011.0
20210518054204 10 203 0.0 0.0 0.05 0.20 0.20 90 1011.1
20210518053704 10 178 0.0 0.0 0.03 0.18 0.18 89 1011.2
20210518053205 10 178 0.0 0.0 0.03 0.18 0.18 89 1011.2
20210518052705 10 173 0.0 0.0 0.03 0.18 0.18 89 1011.1
20210518052204 10 217 0.0 0.0 0.03 0.18 0.18 89 1011.1
20210518051705 10 183 0.0 0.0 0.03 0.18 0.18 89 1011.3
20210518051204 10 162 0.0 0.0 0.03 0.18 0.18 88 1011.4
20210518050704 10 179 0.0 0.0 0.03 0.18 0.18 88 1011.4
20210518050205 10 141 0.0 0.0 0.03 0.18 0.18 87 1011.5
20210518045704 10 180 0.0 0.0 0.03 0.18 0.18 87 1011.4
20210518045204 10 145 0.0 0.0 0.00 0.15 0.15 87 1011.4
20210518044704 10 147 0.0 0.0 0.00 0.15 0.15 87 1011.4
20210518044204 10 147 0.0 0.0 0.00 0.15 0.15 86 1011.3
20210518043713 10 186 0.0 0.0 0.00 0.15 0.15 86 1011.5
20210518043205 10 223 0.0 0.0 0.00 0.15 0.15 86 1011.4
20210518042704 10 202 0.0 9.7 0.00 0.15 0.15 86 1011.4
20210518042204 10 155 0.0 9.7 0.00 0.15 0.15 86 1011.3
20210518041705 10 179 0.0 9.7 0.00 0.15 0.15 86 1011.2
20210518041205 10 162 0.0 1.6 0.00 0.15 0.15 86 1011.2
20210518040705 10 151 0.0 0.0 0.00 0.15 0.15 87 1011.1
20210518040205 10 237 0.0 0.0 0.03 0.15 0.15 87 1011.1
20210518035704 10 152 0.0 0.0 0.03 0.15 0.15 87 1011.0
20210518035205 10 196 0.0 0.0 0.03 0.15 0.15 88 1011.0
20210518034704 10 200 0.0 0.0 0.05 0.15 0.15 88 1011.0
20210518034204 10 145 0.0 0.0 0.05 0.15 0.15 88 1010.9
20210518033704 10 164 0.0 0.0 0.05 0.15 0.15 89 1011.0
20210518033205 10 245 0.0 0.0 0.08 0.15 0.15 88 1010.7
20210518032704 10 176 0.0 0.0 0.08 0.15 0.15 89 1010.8
20210518032205 10 175 0.0 0.0 0.10 0.15 0.15 89 1010.8
20210518031704 10 196 0.0 0.0 0.13 0.15 0.15 88 1010.8
20210518031204 10 180 0.0 0.0 0.15 0.15 0.15 88 1010.8
20210518030707 10 193 0.0 0.0 0.15 0.15 0.15 88 1010.8
20210518030205 10 173 0.0 0.0 0.13 0.13 0.13 88 1011.0
20210518025704 10 165 0.0 0.0 0.13 0.13 0.13 87 1010.9
20210518025207 10 186 0.0 0.0 0.13 0.13 0.13 87 1011.0
20210518024704 10 158 0.0 0.0 0.10 0.10 0.10 87 1011.2
20210518024204 10 158 0.0 0.0 0.10 0.10 0.10 86 1011.2
20210518023704 11 240 0.0 0.0 0.08 0.08 0.08 86 1011.3
20210518023204 11 193 0.0 0.0 0.08 0.08 0.08 85 1011.4
20210518022704 11 196 0.0 0.0 0.05 0.05 0.05 84 1011.4
20210518022205 11 216 0.0 0.0 0.05 0.05 0.05 83 1011.3
20210518021704 11 182 0.0 0.0 0.03 0.03 0.03 82 1011.4
20210518021205 11 189 0.0 0.0 0.00 0.00 0.00 80 1011.3
20210518020705 12 159 0.0 0.0 0.00 0.00 0.00 78 1011.3
20210518020205 12 220 0.0 0.0 0.00 0.00 0.00 76 1011.3
20210518015704 12 214 0.0 0.0 0.00 0.00 0.00 75 1011.2
20210518015204 12 130 0.0 0.0 0.00 0.00 0.00 75 1011.3
20210518014705 12 161 0.0 0.0 0.00 0.00 0.00 74 1011.3
20210518014204 12 227 0.0 0.0 0.00 0.00 0.00 74 1011.3
20210518013704 12 193 0.0 0.0 0.00 0.00 0.00 74 1011.4
20210518013205 12 195 0.0 0.0 0.00 0.00 0.00 74 1011.4
20210518012704 12 195 0.0 0.0 0.00 0.00 0.00 74 1011.5
20210518012205 12 173 0.0 0.0 0.00 0.00 0.00 74 1011.5
20210518011705 13 173 0.0 0.0 0.00 0.00 0.00 74 1011.6
20210518011204 13 243 0.0 0.0 0.00 0.00 0.00 74 1011.5
20210518010707 13 199 0.0 0.0 0.00 0.00 0.00 74 1011.5
20210518010204 13 207 0.0 0.0 0.00 0.00 0.00 74 1011.5
20210518005704 13 118 0.0 0.0 0.00 0.00 0.00 74 1011.4
20210518005205 13 172 0.0 0.0 0.00 0.00 0.00 74 1011.5
20210518004704 13 168 0.0 0.0 0.00 0.00 0.00 74 1011.6
20210518004204 13 199 0.0 0.0 0.00 0.00 0.00 73 1011.8
20210518003705 13 209 0.0 0.0 0.00 0.00 0.00 70 1011.8
20210518003204 13 166 0.0 0.0 0.00 0.00 0.00 69 1011.9
20210518002704 14 135 0.0 0.0 0.00 0.00 0.00 69 1011.9
20210518002204 14 147 0.0 0.0 0.00 0.00 0.00 69 1012.0
20210518001704 14 209 0.0 0.0 0.00 0.00 0.00 68 1012.0
20210518001205 14 288 0.0 0.0 0.00 0.00 0.00 68 1012.1
20210518000704 14 176 0.0 11.3 0.00 0.00 0.00 68 1012.2
20210518000205 14 189 0.0 11.3 0.00 0.00 0.00 67 1012.2
20210517235704 14 203 0.0 11.3 0.00 0.00 0.00 68 1012.2
20210517235204 14 203 0.0 8.0 0.00 0.00 0.00 67 1012.1
20210517234705 15 212 0.0 8.0 0.00 0.00 0.00 67 1012.0
20210517234205 15 196 0.0 8.0 0.00 0.00 0.00 67 1012.2
20210517233704 15 310 0.0 0.0 0.00 0.00 0.00 67 1012.1
20210517233204 15 219 0.0 0.0 0.00 0.00 0.00 66 1012.0
20210517232704 15 213 0.0 0.0 0.00 0.00 0.00 67 1012.0
20210517232205 15 283 0.0 0.0 0.00 0.00 0.00 66 1012.0
20210517231704 15 176 0.0 0.0 0.00 0.00 0.00 66 1012.1
20210517231204 15 213 0.0 0.0 0.00 0.00 0.00 66 1012.1
20210517230704 15 238 0.0 0.0 0.00 0.00 0.00 67 1012.1
20210517230204 15 142 0.0 0.0 0.00 0.00 0.00 67 1011.9
20210517225704 15 203 0.0 0.0 0.00 0.00 0.00 67 1011.9
20210517225205 15 165 0.0 0.0 0.00 0.00 0.00 66 1011.9
20210517224704 15 197 0.0 0.0 0.00 0.00 0.00 66 1012.1
20210517224205 15 203 0.0 0.0 0.00 0.00 0.00 66 1012.1
20210517223707 15 161 0.0 0.0 0.00 0.00 0.00 66 1012.1
20210517223207 15 262 0.0 0.0 0.00 0.00 0.00 66 1012.1
20210517222705 15 190 0.0 0.0 0.00 0.00 0.00 66 1012.2
20210517222205 15 206 0.0 0.0 0.00 0.00 0.00 66 1012.3
20210517221707 15 206 0.0 0.0 0.00 0.00 0.00 67 1012.3
20210517221205 15 178 0.0 1.6 0.00 0.00 0.00 68 1012.1
20210517220706 15 178 0.0 1.6 0.00 0.00 0.00 67 1012.2
20210517220204 15 171 0.0 1.6 0.00 0.00 0.00 66 1012.2
20210517215707 15 199 0.0 0.0 0.00 0.00 0.00 67 1012.1
20210517215205 15 175 0.0 0.0 0.00 0.00 0.00 67 1012.1
20210517214704 15 223 0.0 0.0 0.00 0.00 0.00 68 1012.1
20210517214207 15 200 0.0 0.0 0.00 0.00 0.00 66 1012.0
20210517213705 15 244 0.0 0.0 0.00 0.00 0.00 67 1012.1
20210517213205 15 210 0.0 0.0 0.00 0.00 0.00 68 1012.2
20210517212704 15 216 0.0 8.0 0.00 0.00 0.00 68 1012.2
20210517212205 15 186 0.0 8.0 0.00 0.00 0.00 67 1012.2
20210517211707 15 182 0.0 8.0 0.00 0.00 0.00 68 1012.3
20210517211208 15 223 0.0 1.6 0.00 0.00 0.00 67 1012.3
20210517210704 15 234 0.0 0.0 0.00 0.00 0.00 67 1012.3
20210517210205 15 141 0.0 0.0 0.00 0.00 0.00 68 1012.3
20210517205704 15 127 0.0 0.0 0.00 0.00 0.00 70 1012.4
20210517205204 15 175 0.0 0.0 0.00 0.00 0.00 69 1012.5
20210517204704 15 204 0.0 0.0 0.00 0.00 0.00 70 1012.4
20210517204205 15 155 0.0 0.0 0.00 0.00 0.00 71 1012.5
20210517203704 15 219 0.0 1.6 0.00 0.00 0.00 71 1012.6
20210517203204 14 168 0.0 1.6 0.00 0.00 0.00 73 1012.7
20210517202704 14 152 0.0 1.6 0.00 0.00 0.00 70 1012.7
20210517202203 14 175 0.0 0.0 0.00 0.00 0.00 72 1012.8
20210517201705 14 195 0.0 0.0 0.00 0.00 0.00 72 1012.8
20210517201204 14 145 0.0 0.0 0.00 0.00 0.00 72 1012.8